USY629 EPRZ-EDFH

Flight info

Callsign USY629
Flight time 1h 30m
Altitude 28000
Route GOVRI T738 XEVLU Z127 USALO/N0449F380 L984 PADKA DCT OKG N869 ANELA Z715 COSJE Z744 LEPSA/N0377F240 Z104 OLGIL OLGIL4B
Aircraft A343/H-SDE2E3FGHIJ4J5M1RWXY/LB1D1

Departure

Time 2026-05-04 18:42
Airport Rzeszów-Jasionka Airport (EPRZ)

Arrival

Time 2026-05-04 20:12
Airport Frankfurt-Hahn Airport (EDFH)
Time Latitude Longitude Altitude Speed Heading
2026-05-04 18:10 50.11408 22.02630 703 ft 0 kts
2026-05-04 18:27 50.11406 22.02630 695 ft 2 kts
2026-05-04 18:27 50.11381 22.02627 696 ft 4 kts 13°
2026-05-04 18:27 50.11356 22.02614 693 ft 4 kts 31°
2026-05-04 18:28 50.11336 22.02588 693 ft 4 kts 58°
2026-05-04 18:28 50.11328 22.02555 693 ft 1 kts 91°
2026-05-04 18:32 50.11328 22.02570 693 ft 5 kts 91°
2026-05-04 18:32 50.11328 22.02658 700 ft 11 kts 89°
2026-05-04 18:33 50.11313 22.02733 692 ft 0 kts 128°
2026-05-04 18:35 50.11309 22.02737 696 ft 1 kts 139°
2026-05-04 18:36 50.11281 22.02745 693 ft 6 kts 177°
2026-05-04 18:36 50.11226 22.02744 701 ft 9 kts 180°
2026-05-04 18:36 50.11153 22.02745 695 ft 12 kts 180°
2026-05-04 18:36 50.11060 22.02742 694 ft 13 kts 181°
2026-05-04 18:37 50.10993 22.02796 695 ft 11 kts 113°
2026-05-04 18:37 50.10989 22.02917 697 ft 12 kts 90°
2026-05-04 18:37 50.10988 22.03063 698 ft 14 kts 90°
2026-05-04 18:37 50.10987 22.03237 700 ft 18 kts 93°
2026-05-04 18:38 50.10982 22.03458 695 ft 22 kts 89°
2026-05-04 18:38 50.10982 22.03698 692 ft 23 kts 90°
2026-05-04 18:38 50.10976 22.03952 696 ft 23 kts 91°
2026-05-04 18:38 50.10973 22.04203 695 ft 24 kts 91°
2026-05-04 18:39 50.10963 22.04440 688 ft 15 kts 112°
2026-05-04 18:39 50.10965 22.04474 693 ft 3 kts 56°
2026-05-04 18:39 50.10994 22.04542 691 ft 8 kts 81°
2026-05-04 18:39 50.10973 22.04564 690 ft 2 kts 206°
2026-05-04 18:40 50.10968 22.04519 691 ft 7 kts 267°
2026-05-04 18:40 50.10969 22.04491 687 ft 0 kts 271°
2026-05-04 18:41 50.10969 22.04246 694 ft 59 kts 270°
2026-05-04 18:41 50.10982 22.03212 696 ft 129 kts 271°
2026-05-04 18:41 50.11005 22.01495 726 ft 185 kts 270°
2026-05-04 18:41 50.11037 21.99356 1230 ft 206 kts 268°
2026-05-04 18:42 50.11061 21.97041 1960 ft 226 kts 266°
2026-05-04 18:42 50.11085 21.94480 2581 ft 241 kts 266°
2026-05-04 18:42 50.11118 21.91872 3541 ft 242 kts 268°
2026-05-04 18:42 50.11149 21.89428 4277 ft 249 kts 269°
2026-05-04 18:43 50.11182 21.86691 5054 ft 256 kts 270°
2026-05-04 18:43 50.11220 21.83850 5885 ft 261 kts 270°
2026-05-04 18:43 50.11252 21.81005 6753 ft 264 kts 270°
2026-05-04 18:43 50.11282 21.78125 7618 ft 267 kts 270°
2026-05-04 18:44 50.11311 21.75221 8448 ft 269 kts 270°
2026-05-04 18:44 50.11331 21.73282 9019 ft 271 kts 270°
2026-05-04 18:44 50.11370 21.69327 10100 ft 275 kts 269°
2026-05-04 18:44 50.11398 21.66319 10532 ft 291 kts 270°
2026-05-04 18:45 50.11428 21.63072 10806 ft 309 kts 270°
2026-05-04 18:45 50.11459 21.59623 11136 ft 325 kts 270°
2026-05-04 18:45 50.11491 21.56050 11670 ft 333 kts 270°
2026-05-04 18:45 50.11523 21.52410 12289 ft 339 kts 270°
2026-05-04 18:46 50.11554 21.48714 12979 ft 343 kts 270°
2026-05-04 18:46 50.11584 21.44973 13600 ft 349 kts 270°
2026-05-04 18:46 50.11613 21.41165 13912 ft 353 kts 270°
2026-05-04 18:46 50.11583 21.37339 13961 ft 353 kts 267°
2026-05-04 18:47 50.11478 21.33506 13974 ft 354 kts 266°
2026-05-04 18:47 50.11371 21.29680 13965 ft 354 kts 266°
2026-05-04 18:47 50.11270 21.25843 13963 ft 354 kts 267°
2026-05-04 18:47 50.11173 21.22005 13963 ft 355 kts 267°
2026-05-04 18:48 50.11078 21.18163 13972 ft 355 kts 267°
2026-05-04 18:48 50.10984 21.14328 14023 ft 355 kts 267°
2026-05-04 18:48 50.10888 21.10473 14388 ft 358 kts 267°
2026-05-04 18:48 50.10792 21.06595 15072 ft 359 kts 267°
2026-05-04 18:49 50.10694 21.02716 15801 ft 359 kts 267°
2026-05-04 18:49 50.10619 20.98821 16549 ft 360 kts 268°
2026-05-04 18:49 50.10581 20.94916 17186 ft 363 kts 268°
2026-05-04 18:49 50.10557 20.90955 17779 ft 368 kts 268°
2026-05-04 18:50 50.10534 20.86957 18361 ft 372 kts 268°
2026-05-04 18:50 50.10506 20.82912 18900 ft 375 kts 268°
2026-05-04 18:50 50.10472 20.78840 19456 ft 377 kts 268°
2026-05-04 18:50 50.10433 20.74725 20015 ft 380 kts 268°
2026-05-04 18:51 50.10389 20.70607 20560 ft 383 kts 268°
2026-05-04 18:51 50.10341 20.66454 21098 ft 386 kts 268°
2026-05-04 18:51 50.10172 20.62264 21627 ft 388 kts 264°
2026-05-04 18:51 50.09883 20.58074 22131 ft 391 kts 263°
2026-05-04 18:52 50.09542 20.53864 22664 ft 393 kts 262°
2026-05-04 18:52 50.09171 20.49636 23193 ft 395 kts 262°
2026-05-04 18:52 50.08783 20.45382 23667 ft 398 kts 262°
2026-05-04 18:52 50.08389 20.41102 24047 ft 401 kts 262°
2026-05-04 18:53 50.07991 20.36787 24433 ft 404 kts 262°
2026-05-04 18:53 50.07592 20.32440 24819 ft 407 kts 262°
2026-05-04 18:53 50.07192 20.28079 25190 ft 409 kts 262°
2026-05-04 18:53 50.06788 20.23672 25574 ft 412 kts 262°
2026-05-04 18:54 50.06382 20.19253 25936 ft 414 kts 262°
2026-05-04 18:54 50.05972 20.14799 26298 ft 417 kts 262°
2026-05-04 18:54 50.05558 20.10331 26655 ft 419 kts 262°
2026-05-04 18:54 50.05140 20.05832 27005 ft 421 kts 262°
2026-05-04 18:55 50.04717 20.01304 27321 ft 425 kts 262°
2026-05-04 18:55 50.03859 19.92174 27918 ft 431 kts 262°
2026-05-04 18:55 50.03427 19.87612 27966 ft 427 kts 262°
2026-05-04 18:56 50.02989 19.83007 27979 ft 424 kts 262°
2026-05-04 18:56 50.02561 19.78532 27964 ft 424 kts 262°
2026-05-04 18:56 50.02126 19.73994 27965 ft 424 kts 262°
2026-05-04 18:56 50.01690 19.69460 27964 ft 424 kts 262°
2026-05-04 18:57 50.01251 19.64928 27992 ft 424 kts 262°
2026-05-04 18:57 50.00811 19.60396 27982 ft 424 kts 262°
2026-05-04 18:57 50.00369 19.55859 27984 ft 424 kts 262°
2026-05-04 18:57 49.99924 19.51323 27981 ft 424 kts 262°
2026-05-04 18:58 49.99479 19.46788 27983 ft 424 kts 262°
2026-05-04 18:58 49.99031 19.42256 27986 ft 425 kts 262°
2026-05-04 18:58 49.98581 19.37713 27981 ft 425 kts 262°
2026-05-04 18:58 49.98129 19.33172 27989 ft 426 kts 262°
2026-05-04 18:59 49.97674 19.28622 27985 ft 426 kts 262°
2026-05-04 18:59 49.97218 19.24083 27987 ft 426 kts 262°
2026-05-04 18:59 49.96761 19.19548 27977 ft 426 kts 262°
2026-05-04 18:59 49.96301 19.15007 27978 ft 425 kts 262°
2026-05-04 19:00 49.95840 19.10470 27978 ft 425 kts 262°
2026-05-04 19:00 49.95379 19.05943 27981 ft 425 kts 262°
2026-05-04 19:00 49.94914 19.01409 27985 ft 425 kts 262°
2026-05-04 19:00 49.94450 18.96891 27995 ft 425 kts 262°
2026-05-04 19:01 49.94084 18.92343 27989 ft 424 kts 268°
2026-05-04 19:01 49.93957 18.87776 27980 ft 423 kts 269°
2026-05-04 19:01 49.93885 18.83205 27974 ft 423 kts 269°
2026-05-04 19:01 49.93842 18.78637 27980 ft 423 kts 270°
2026-05-04 19:02 49.93811 18.74067 27976 ft 423 kts 270°
2026-05-04 19:02 49.93782 18.69491 27979 ft 423 kts 270°
2026-05-04 19:02 49.93750 18.64931 27970 ft 423 kts 270°
2026-05-04 19:02 49.93714 18.60351 27982 ft 423 kts 270°
2026-05-04 19:03 49.93672 18.55787 27966 ft 423 kts 270°
2026-05-04 19:03 49.93627 18.51217 27972 ft 423 kts 270°
2026-05-04 19:03 49.93579 18.46652 28000 ft 424 kts 269°
2026-05-04 19:03 49.93532 18.42061 28228 ft 427 kts 270°
2026-05-04 19:04 49.93488 18.37445 28587 ft 428 kts 270°
2026-05-04 19:04 49.93442 18.32816 28916 ft 430 kts 270°
2026-05-04 19:04 49.93463 18.28163 29228 ft 432 kts 274°
2026-05-04 19:04 49.93630 18.23496 29548 ft 434 kts 274°
2026-05-04 19:05 49.93828 18.18812 29861 ft 436 kts 275°
2026-05-04 19:05 49.94044 18.14107 30144 ft 438 kts 275°
2026-05-04 19:05 49.94267 18.09385 30400 ft 440 kts 275°
2026-05-04 19:05 49.94490 18.04650 30665 ft 441 kts 275°
2026-05-04 19:06 49.94712 17.99890 30930 ft 442 kts 275°
2026-05-04 19:06 49.94930 17.95119 31194 ft 444 kts 275°
2026-05-04 19:06 49.95146 17.90328 31439 ft 445 kts 275°
2026-05-04 19:06 49.95358 17.85536 31684 ft 446 kts 274°
2026-05-04 19:07 49.95498 17.82355 31880 ft 447 kts 274°
2026-05-04 19:07 49.95707 17.77543 32172 ft 447 kts 274°
2026-05-04 19:07 49.95914 17.72732 32485 ft 446 kts 274°
2026-05-04 19:07 49.96119 17.67930 32841 ft 445 kts 274°
2026-05-04 19:08 49.96385 17.61601 33301 ft 443 kts 274°
2026-05-04 19:08 49.96520 17.58382 33545 ft 442 kts 274°
2026-05-04 19:08 49.96717 17.53625 33886 ft 440 kts 274°
2026-05-04 19:08 49.96911 17.48893 34199 ft 439 kts 274°
2026-05-04 19:09 49.97103 17.44161 34462 ft 438 kts 274°
2026-05-04 19:09 49.97293 17.39446 34710 ft 438 kts 274°
2026-05-04 19:09 49.97479 17.34787 34947 ft 437 kts 274°
2026-05-04 19:09 49.97665 17.30080 35189 ft 437 kts 274°
2026-05-04 19:10 49.97849 17.25367 35414 ft 436 kts 274°
2026-05-04 19:10 49.97972 17.22192 35582 ft 436 kts 274°
2026-05-04 19:10 49.98210 17.15975 35879 ft 436 kts 274°
2026-05-04 19:10 49.98387 17.11275 36105 ft 435 kts 274°
2026-05-04 19:11 49.98562 17.06589 36341 ft 435 kts 273°
2026-05-04 19:11 49.98735 17.01905 36623 ft 433 kts 273°
2026-05-04 19:11 49.98905 16.97244 36843 ft 432 kts 273°
2026-05-04 19:11 49.99074 16.92579 37040 ft 432 kts 273°
2026-05-04 19:12 49.99241 16.87908 37228 ft 432 kts 273°
2026-05-04 19:12 49.99569 16.78582 37609 ft 432 kts 273°
2026-05-04 19:12 49.99730 16.73916 37797 ft 432 kts 273°
2026-05-04 19:13 49.99888 16.69261 37946 ft 432 kts 273°
2026-05-04 19:13 50.00203 16.59869 37971 ft 436 kts 273°
2026-05-04 19:14 50.00510 16.50482 37965 ft 433 kts 273°
2026-05-04 19:14 50.00808 16.41159 37958 ft 432 kts 272°
2026-05-04 19:15 50.01098 16.31821 37960 ft 432 kts 272°
2026-05-04 19:15 50.01380 16.22486 37955 ft 432 kts 272°
2026-05-04 19:16 50.01656 16.13151 37961 ft 432 kts 272°
2026-05-04 19:16 50.01924 16.03833 37945 ft 431 kts 272°
2026-05-04 19:17 50.02183 15.94535 37947 ft 430 kts 272°
2026-05-04 19:17 50.02433 15.85299 37939 ft 430 kts 272°
2026-05-04 19:18 50.02678 15.75997 37939 ft 430 kts 272°
2026-05-04 19:18 50.02915 15.66694 37941 ft 430 kts 272°
2026-05-04 19:19 50.03144 15.57393 37935 ft 430 kts 271°
2026-05-04 19:19 50.03366 15.48094 37938 ft 430 kts 271°
2026-05-04 19:20 50.03581 15.38805 37936 ft 430 kts 271°
2026-05-04 19:20 50.03788 15.29503 37936 ft 430 kts 271°
2026-05-04 19:21 50.03988 15.20198 37941 ft 430 kts 271°
2026-05-04 19:21 50.04180 15.10901 37938 ft 430 kts 271°
2026-05-04 19:22 50.04365 15.01603 37935 ft 430 kts 271°
2026-05-04 19:22 50.04542 14.92313 37938 ft 430 kts 271°
2026-05-04 19:23 50.04712 14.83014 37941 ft 430 kts 271°
2026-05-04 19:23 50.04875 14.73690 37944 ft 430 kts 270°
2026-05-04 19:24 50.05030 14.64439 37941 ft 429 kts 270°
2026-05-04 19:24 50.05177 14.55175 37939 ft 428 kts 270°
2026-05-04 19:25 50.05316 14.45911 37937 ft 428 kts 270°
2026-05-04 19:25 50.05450 14.36646 37937 ft 428 kts 270°
2026-05-04 19:26 50.05575 14.27377 37950 ft 428 kts 270°
2026-05-04 19:26 50.05693 14.18100 37938 ft 429 kts 270°
2026-05-04 19:27 50.05803 14.08829 37936 ft 429 kts 270°
2026-05-04 19:27 50.05906 13.99546 37944 ft 429 kts 269°
2026-05-04 19:28 50.06002 13.90272 37941 ft 429 kts 269°
2026-05-04 19:28 50.06089 13.80998 37954 ft 429 kts 269°
2026-05-04 19:29 50.06170 13.71713 37942 ft 429 kts 269°
2026-05-04 19:29 50.06243 13.62419 37947 ft 430 kts 269°
2026-05-04 19:30 50.06309 13.53118 37942 ft 430 kts 269°
2026-05-04 19:30 50.06368 13.43884 37950 ft 430 kts 269°
2026-05-04 19:31 50.06419 13.34583 37947 ft 430 kts 269°
2026-05-04 19:31 50.06463 13.25291 37949 ft 430 kts 269°
2026-05-04 19:32 50.06499 13.15985 37951 ft 430 kts 269°
2026-05-04 19:32 50.06528 13.06685 37962 ft 430 kts 269°
2026-05-04 19:33 50.06311 12.97422 37964 ft 428 kts 260°
2026-05-04 19:33 50.05094 12.88368 37961 ft 427 kts 256°
2026-05-04 19:34 50.03652 12.79404 37960 ft 427 kts 255°
2026-05-04 19:34 50.02169 12.70472 37961 ft 427 kts 255°
2026-05-04 19:35 50.00689 12.61540 37956 ft 427 kts 255°
2026-05-04 19:35 49.99215 12.52613 37952 ft 426 kts 255°
2026-05-04 19:36 49.97739 12.43696 37935 ft 426 kts 255°
2026-05-04 19:36 49.96253 12.34771 37947 ft 427 kts 254°
2026-05-04 19:37 49.94758 12.25842 37945 ft 427 kts 254°
2026-05-04 19:37 49.93269 12.16988 37947 ft 420 kts 254°
2026-05-04 19:38 49.91790 12.08248 37961 ft 419 kts 254°
2026-05-04 19:38 49.90303 11.99505 37972 ft 419 kts 254°
2026-05-04 19:39 49.88818 11.90817 37972 ft 419 kts 254°
2026-05-04 19:39 49.87319 11.82087 37978 ft 419 kts 254°
2026-05-04 19:40 49.85811 11.73348 37958 ft 419 kts 253°
2026-05-04 19:40 49.84297 11.64618 37976 ft 419 kts 253°
2026-05-04 19:41 49.82776 11.55889 37947 ft 420 kts 253°
2026-05-04 19:41 49.81249 11.47168 37954 ft 420 kts 253°
2026-05-04 19:42 49.79715 11.38454 37937 ft 420 kts 253°
2026-05-04 19:42 49.78947 11.34104 37568 ft 417 kts 253°
2026-05-04 19:42 49.78180 11.29772 36925 ft 419 kts 253°
2026-05-04 19:42 49.77419 11.25400 36260 ft 422 kts 255°
2026-05-04 19:43 49.76921 11.20919 35633 ft 426 kts 262°
2026-05-04 19:43 49.76666 11.16338 35027 ft 428 kts 263°
2026-05-04 19:43 49.76468 11.11752 34429 ft 430 kts 264°
2026-05-04 19:43 49.76300 11.07112 33823 ft 432 kts 264°
2026-05-04 19:44 49.76142 11.02471 33141 ft 433 kts 264°
2026-05-04 19:44 49.75985 10.97797 32471 ft 434 kts 265°
2026-05-04 19:44 49.75823 10.93139 32048 ft 435 kts 265°
2026-05-04 19:45 49.75478 10.83688 31943 ft 441 kts 264°
2026-05-04 19:45 49.75127 10.74251 31952 ft 438 kts 264°
2026-05-04 19:46 49.74762 10.64849 31958 ft 438 kts 264°
2026-05-04 19:46 49.74390 10.55448 31957 ft 438 kts 264°
2026-05-04 19:47 49.74006 10.46061 31956 ft 438 kts 264°
2026-05-04 19:47 49.73610 10.36665 31956 ft 438 kts 263°
2026-05-04 19:48 49.73209 10.27275 31964 ft 438 kts 263°
2026-05-04 19:48 49.72798 10.17861 31963 ft 439 kts 263°
2026-05-04 19:49 49.72381 10.08450 31965 ft 439 kts 263°
2026-05-04 19:49 49.72105 9.98998 31967 ft 442 kts 270°
2026-05-04 19:50 49.73342 9.89655 31961 ft 450 kts 287°
2026-05-04 19:50 49.75800 9.80719 31968 ft 452 kts 289°
2026-05-04 19:51 49.77761 9.71549 31963 ft 448 kts 282°
2026-05-04 19:51 49.79461 9.62347 31519 ft 446 kts 282°
2026-05-04 19:51 49.80305 9.57715 30849 ft 447 kts 282°
2026-05-04 19:52 49.81142 9.53106 30484 ft 441 kts 282°
2026-05-04 19:52 49.81964 9.48561 30002 ft 438 kts 282°
2026-05-04 19:52 49.82780 9.44032 29425 ft 435 kts 282°
2026-05-04 19:52 49.83588 9.39532 28896 ft 432 kts 282°
2026-05-04 19:53 49.84388 9.35067 28356 ft 429 kts 282°
2026-05-04 19:53 49.85181 9.30623 27821 ft 426 kts 282°
2026-05-04 19:53 49.85966 9.26219 27300 ft 423 kts 282°
2026-05-04 19:53 49.86744 9.21845 26806 ft 420 kts 282°
2026-05-04 19:54 49.87514 9.17505 26320 ft 417 kts 282°
2026-05-04 19:54 49.88279 9.13178 25839 ft 414 kts 282°
2026-05-04 19:54 49.88781 9.10334 25527 ft 412 kts 282°
2026-05-04 19:54 49.89544 9.06002 25035 ft 410 kts 282°
2026-05-04 19:55 49.90295 9.01733 24550 ft 409 kts 282°
2026-05-04 19:55 49.91036 8.97509 24087 ft 406 kts 281°
2026-05-04 19:55 49.91774 8.93289 23649 ft 404 kts 281°
2026-05-04 19:55 49.92508 8.89083 22941 ft 405 kts 281°
2026-05-04 19:56 49.93229 8.84935 22473 ft 402 kts 282°
2026-05-04 19:56 49.93952 8.80779 22060 ft 397 kts 281°
2026-05-04 19:56 49.94666 8.76660 21591 ft 393 kts 281°
2026-05-04 19:56 49.95372 8.72578 21139 ft 390 kts 281°
2026-05-04 19:57 49.96072 8.68518 20686 ft 387 kts 281°
2026-05-04 19:57 49.96765 8.64493 20229 ft 385 kts 281°
2026-05-04 19:57 49.97452 8.60486 19773 ft 382 kts 281°
2026-05-04 19:57 49.98134 8.56507 19323 ft 380 kts 281°
2026-05-04 19:58 49.98810 8.52553 18887 ft 378 kts 282°
2026-05-04 19:58 49.99481 8.48615 18456 ft 375 kts 282°
2026-05-04 19:58 50.00146 8.44704 17985 ft 373 kts 282°
2026-05-04 19:58 50.00806 8.40820 17473 ft 371 kts 282°
2026-05-04 19:59 50.01461 8.36954 16901 ft 370 kts 282°
2026-05-04 19:59 50.02119 8.33051 16162 ft 375 kts 282°
2026-05-04 19:59 50.02782 8.29114 15527 ft 377 kts 282°
2026-05-04 19:59 50.03447 8.25160 15003 ft 376 kts 282°
2026-05-04 20:00 50.04099 8.21287 14806 ft 365 kts 282°
2026-05-04 20:00 50.04732 8.17522 14635 ft 355 kts 282°
2026-05-04 20:00 50.05345 8.13862 14478 ft 345 kts 281°
2026-05-04 20:00 50.05939 8.10301 14344 ft 335 kts 281°
2026-05-04 20:01 50.06515 8.06845 14214 ft 324 kts 281°
2026-05-04 20:01 50.07065 8.03541 13886 ft 308 kts 281°
2026-05-04 20:01 50.07595 8.00345 13179 ft 302 kts 281°
2026-05-04 20:01 50.08114 7.97198 12462 ft 298 kts 281°
2026-05-04 20:02 50.08624 7.94102 11778 ft 294 kts 281°
2026-05-04 20:02 50.09127 7.91041 11103 ft 290 kts 281°
2026-05-04 20:02 50.09625 7.88017 10439 ft 286 kts 280°
2026-05-04 20:02 50.10116 7.85028 9763 ft 283 kts 280°
2026-05-04 20:03 50.10600 7.82080 8998 ft 280 kts 280°
2026-05-04 20:03 50.11079 7.79154 8241 ft 277 kts 280°
2026-05-04 20:03 50.11551 7.76268 7544 ft 273 kts 280°
2026-05-04 20:03 50.12010 7.73461 7141 ft 260 kts 280°
2026-05-04 20:04 50.12446 7.70793 6892 ft 251 kts 279°
2026-05-04 20:04 50.12868 7.68199 6774 ft 243 kts 279°
2026-05-04 20:04 50.13277 7.65683 6667 ft 235 kts 279°
2026-05-04 20:04 50.13669 7.63273 6529 ft 225 kts 278°
2026-05-04 20:05 50.14043 7.60957 6394 ft 216 kts 279°
2026-05-04 20:05 50.14398 7.58768 6332 ft 200 kts 278°
2026-05-04 20:05 50.14729 7.56721 6158 ft 194 kts 278°
2026-05-04 20:05 50.15057 7.54667 5770 ft 197 kts 278°
2026-05-04 20:06 50.15386 7.52595 5416 ft 197 kts 279°
2026-05-04 20:06 50.15717 7.50533 5078 ft 195 kts 279°
2026-05-04 20:06 50.15893 7.48471 4664 ft 190 kts 255°
2026-05-04 20:06 50.15226 7.46804 4347 ft 181 kts 221°
2026-05-04 20:07 50.14227 7.45627 4048 ft 177 kts 213°
2026-05-04 20:07 50.13198 7.44585 4008 ft 178 kts 212°
2026-05-04 20:07 50.12150 7.43544 4001 ft 180 kts 212°
2026-05-04 20:07 50.11096 7.42494 4000 ft 180 kts 212°
2026-05-04 20:08 50.10040 7.41436 4002 ft 180 kts 212°
2026-05-04 20:08 50.08985 7.40379 3999 ft 181 kts 212°
2026-05-04 20:08 50.07929 7.39324 3999 ft 180 kts 212°
2026-05-04 20:08 50.06873 7.38274 4001 ft 180 kts 212°
2026-05-04 20:09 50.05816 7.37225 3949 ft 181 kts 212°
2026-05-04 20:09 50.04772 7.36192 3730 ft 177 kts 212°
2026-05-04 20:09 50.03760 7.35187 3507 ft 167 kts 212°
2026-05-04 20:09 50.02808 7.34243 3289 ft 158 kts 211°
2026-05-04 20:10 50.01911 7.33353 3072 ft 146 kts 211°
2026-05-04 20:10 50.01072 7.32523 2880 ft 142 kts 211°
2026-05-04 20:10 50.00239 7.31698 2704 ft 142 kts 211°
2026-05-04 20:10 49.99401 7.30869 2495 ft 143 kts 212°
2026-05-04 20:11 49.98567 7.30043 2292 ft 142 kts 212°
2026-05-04 20:11 49.97734 7.29219 2097 ft 142 kts 211°
2026-05-04 20:11 49.96906 7.28400 1896 ft 141 kts 211°
2026-05-04 20:11 49.96081 7.27587 1726 ft 140 kts 212°
2026-05-04 20:12 49.95282 7.26798 1648 ft 128 kts 212°
2026-05-04 20:12 49.94677 7.26201 1669 ft 77 kts 212°
2026-05-04 20:12 49.94356 7.25883 1679 ft 43 kts 212°
2026-05-04 20:12 49.94106 7.25640 1678 ft 42 kts 212°
2026-05-04 20:13 49.93866 7.25404 1679 ft 40 kts 212°
2026-05-04 20:13 49.93638 7.25178 1685 ft 38 kts 213°
2026-05-04 20:13 49.93417 7.24961 1686 ft 37 kts 212°
2026-05-04 20:13 49.93220 7.24766 1690 ft 26 kts 212°
2026-05-04 20:14 49.93133 7.24747 1688 ft 10 kts 149°
2026-05-04 20:14 49.93098 7.24827 1689 ft 9 kts 118°
2026-05-04 20:14 49.93086 7.24911 1684 ft 8 kts 80°
2026-05-04 20:14 49.93122 7.24979 1691 ft 10 kts 41°
2026-05-04 20:15 49.93205 7.25041 1683 ft 14 kts 354°
2026-05-04 20:15 49.93268 7.24926 1682 ft 15 kts 301°
2026-05-04 20:15 49.93332 7.24886 1685 ft 8 kts 17°
2026-05-04 20:15 49.93408 7.24951 1688 ft 16 kts 31°
2026-05-04 20:16 49.93520 7.25058 1687 ft 23 kts 33°
2026-05-04 20:16 49.93689 7.25228 1687 ft 37 kts 32°
2026-05-04 20:16 49.93940 7.25471 1676 ft 44 kts 33°
2026-05-04 20:16 49.94193 7.25725 1678 ft 44 kts 32°
2026-05-04 20:17 49.94470 7.25995 1674 ft 48 kts 33°
2026-05-04 20:17 49.94782 7.26309 1671 ft 59 kts 32°
2026-05-04 20:17 49.95061 7.26580 1652 ft 30 kts 31°
2026-05-04 20:17 49.95117 7.26670 1650 ft 8 kts 80°
2026-05-04 20:18 49.95090 7.26727 1650 ft 6 kts 154°
2026-05-04 20:18 49.95045 7.26732 1650 ft 9 kts 180°
2026-05-04 20:18 49.94976 7.26736 1651 ft 9 kts 169°
2026-05-04 20:18 49.94933 7.26801 1651 ft 9 kts 122°
2026-05-04 20:19 49.94913 7.26904 1651 ft 10 kts 71°
2026-05-04 20:19 49.94969 7.26971 1650 ft 11 kts 30°
2026-05-04 20:19 49.95035 7.27038 1649 ft 10 kts 31°
2026-05-04 20:19 49.95056 7.27085 1648 ft 1 kts 115°
2026-05-04 20:20 49.95043 7.27094 1648 ft 5 kts 148°
2026-05-04 20:20 49.95012 7.27130 1649 ft 5 kts 133°
2026-05-04 20:20 49.94992 7.27175 1649 ft 0 kts 124°